User: anonymous   Login
Location: Unspecified
(0.0000°N, 0.0000°E)
Time: 16:06:45
(UTC+00:00)
Language:

RESURS DK-1 - Orbit

View from above orbital plane
View from above orbital plane
View from above satellite
View from above satellite

Ground track
Ground track

The orbit data is extracted from the following two-line orbital elements,

1 29228U 06021A   17179.76091823 +.00000045 +00000-0 +10808-4 0  9993
2 29228 069.9362 068.6340 0006914 303.0514 056.9982 15.02165624609830
Epoch (UTC): 28 June 2017 18:15:43
Eccentricity: 0.0006914
inclination: 69.9362°
perigee height: 555 km
apogee height: 565 km
right ascension of ascending node: 68.6340°
argument of perigee: 303.0514°
revolutions per day: 15.02165624
mean anomaly at epoch: 56.9982°
orbit number at epoch: 60983

The dashed part of the orbit path shows where the satellite is in the earth's shadow,  

DLR